Find Starlink 31609

NORAD ID: 59269 Int'l Des: 2024-050 Owner: SPXS Country: US Constellation: starlink operational
LEOCIRCULAR

現在のビュー

3D地球を読み込み中...

About Starlink 31609

Starlink 31609 (NORAD 59269) is a starlink constellation satellite (v2 mini) launched Mar 19, 2024 by SPXS of US. It operates in LEO, CIRCULAR orbit with a mass of 730.00 kg.

Starlink 31609について

説明を読み込み中...

次回通過

Passes for default location (London). Set your location on the main map for personalized predictions.

高度履歴

Loading altitude history...

軌道要素

1 59269U 24050R 26178.31922294 .00088449 00000-0 26131-2 0 9996
2 59269 53.1602 31.7545 0000959 82.3951 277.7160 15.34220020127331
Epoch: Jun 27, 2026 • Age: 11 hours

現在のステータス

高度 471.9 km
速度 7.63 km/s
衛星直下点 -28.54°S, 173.17°E
打ち上げ日 Mar 19, 2024
運用期間 2.2 years
タイプ internet

技術仕様

分類 Payload
質量 730.00 kg
乾燥質量 700.00 kg
総質量 730.00 kg
長さ 0.30 m
直径 4.10 m
スパン 29.00 m
形状 Box + pan
製造者 SPXS
バスタイプ Starlink V2M
フェーズステータス In Orbit
所有者/国 SPXS/US

Most Searched